Home   Weather   Rygge   Past weeks

Flag for Norway Past Weather in Rygge, Norway — Yesterday and Last 2 Weeks

Now
60 °F

Low clouds.


Feels Like: 59 °F
Forecast: 57 / 63 °F
Wind: 6 mph from South

Location: Rygge

Current Time: Aug 18, 2017 at 7:11:14 am

Latest Report: Aug 18, 2017 at 6:00 am


Visibility: 7 mi

Pressure: 29.72 "Hg

Humidity: 94%

Dew Point: 58 °F

Location of RyggeLocation

Past Weather in Rygge — Graph

°F

Rygge Temperature Yesterday

Maximum temperature yesterday: 66 °F (at 1:00 pm)
Minimum temperature yesterday: 55 °F (at 3:00 am)
Average temperature yesterday: 61 °F

High & Low Weather Summary for the Past Weeks

 TemperatureHumidityPressure
High70 °F (Aug 6, 6:00 pm)98% (Aug 6, 5:00 am)30.20 "Hg (Aug 6, 5:00 am)
Low46 °F (Aug 14, 3:00 am)41% (Aug 13, 2:00 pm)29.38 "Hg (Aug 4, 11:00 am)
Average60 °F79%29.85 "Hg
* Reported Aug 3 5:00 am — Aug 18 5:00 am, Rygge. Weather by CustomWeather, © 2017

Note: Actual official high and low records may vary slightly from our data, if they occured in-between our weather recording intervals... More about our weather records

Advertising

Rygge Weather History for the Previous 24 Hours

Scroll right to see more
 ConditionsComfort  
Time TempWeatherWind HumidityBarometerVisibility
5:00 am
Fri, Aug 18
60 °FLow clouds.3 mph94%29.73 "Hg9 mi
4:00 am59 °FLow clouds.2 mph96%29.73 "Hg6 mi
3:00 am59 °FRain showers. Light fog.6 mph95%29.74 "Hg6 mi
2:00 am59 °FRain showers. Overcast.8 mph94%29.75 "Hg7 mi
1:00 am58 °FLight rain. Overcast.7 mph93%29.78 "Hg9 mi
12:00 am58 °FRain. Passing clouds.5 mph92%29.81 "Hg7 mi
11:00 pm
Thu, Aug 17
58 °FRain. Passing clouds.3 mph90%29.85 "Hg10 mi
10:00 pm61 °FRain showers. Overcast.2 mph77%29.87 "Hg14 mi
9:00 pm62 °FOvercast.3 mph79%29.88 "Hg31 mi
8:00 pm62 °FScattered clouds.2 mph75%29.90 "Hg28 mi
7:00 pm64 °FSunny.5 mph67%29.92 "Hg28 mi
6:00 pm64 °FPassing clouds.5 mph66%29.95 "Hg25 mi
5:00 pm64 °FScattered clouds.5 mph65%29.96 "Hg31 mi
4:00 pm64 °FScattered clouds.6 mph55%29.98 "Hg25 mi
3:00 pm64 °FPassing clouds.6 mph70%30.00 "Hg28 mi
2:00 pm65 °FPassing clouds.6 mph64%30.01 "Hg22 mi
1:00 pm66 °FPassing clouds.5 mph62%30.02 "Hg19 mi
12:00 pm65 °FPassing clouds.6 mph66%30.04 "Hg22 mi
11:00 am65 °FSunny.6 mph66%30.06 "Hg22 mi
10:00 am63 °FPartly sunny.5 mph75%30.06 "Hg22 mi
9:00 am60 °FOvercast.5 mph80%30.06 "Hg19 mi
8:00 am60 °FPassing clouds.5 mph82%30.05 "Hg19 mi
7:00 am58 °FSunny.5 mph78%30.05 "Hg28 mi
Weather by CustomWeather, © 2017

See weather overviewHow to use our weather pages